| time (UTC) | temp F | wind direction | speed MPH | gust MPH | rain 1hr in | rain 24hr in | rain mn in | humidity % | barometer mb |
| 20260504205019 | 73 | 341 | 2.0 | 9.0 | 0.00 | 0.00 | 0.00 | 33 | 1005.5 |
| 20260504204019 | 72 | 121 | 1.0 | 5.0 | 0.00 | 0.00 | 0.00 | 34 | 1005.6 |
| 20260504203019 | 73 | 333 | 1.0 | 6.0 | 0.00 | 0.00 | 0.00 | 33 | 1005.5 |
| 20260504202019 | 73 | 331 | 1.0 | 5.0 | 0.00 | 0.00 | 0.00 | 33 | 1005.5 |
| 20260504201041 | 72 | 342 | 1.0 | 5.0 | 0.00 | 0.00 | 0.00 | 34 | 1005.5 |
| 20260504200018 | 71 | 354 | 1.0 | 4.0 | 0.00 | 0.00 | 0.00 | 34 | 1005.6 |
| 20260504195018 | 71 | 342 | 1.0 | 4.0 | 0.00 | 0.00 | 0.00 | 35 | 1005.7 |
| 20260504194018 | 72 | 335 | 1.0 | 6.0 | 0.00 | 0.00 | 0.00 | 34 | 1005.6 |
| 20260504193100 | 73 | 341 | 2.0 | 5.0 | 0.00 | 0.00 | 0.00 | 33 | 1005.6 |
| 20260504192018 | 74 | 337 | 2.0 | 6.0 | 0.00 | 0.00 | 0.00 | 32 | 1005.7 |
| 20260504191018 | 74 | 346 | 2.0 | 7.0 | 0.00 | 0.00 | 0.00 | 32 | 1005.7 |
| 20260504190017 | 73 | 342 | 2.0 | 5.0 | 0.00 | 0.00 | 0.00 | 32 | 1005.8 |
| 20260504185017 | 72 | 229 | 1.0 | 3.0 | 0.00 | 0.00 | 0.00 | 32 | 1006.0 |
| 20260504184017 | 73 | 341 | 2.0 | 6.0 | 0.00 | 0.00 | 0.00 | 32 | 1006.1 |
| 20260504183038 | 72 | 344 | 2.0 | 6.0 | 0.00 | 0.00 | 0.00 | 32 | 1006.3 |
| 20260504182019 | 72 | 330 | 1.0 | 5.0 | 0.00 | 0.00 | 0.00 | 31 | 1006.3 |
| 20260504181019 | 72 | 341 | 2.0 | 7.0 | 0.00 | 0.00 | 0.00 | 32 | 1006.3 |
| 20260504180019 | 71 | 340 | 2.0 | 5.0 | 0.00 | 0.00 | 0.00 | 32 | 1006.3 |
| 20260504175019 | 71 | 341 | 3.0 | 9.0 | 0.00 | 0.00 | 0.00 | 32 | 1006.2 |
| 20260504174019 | 70 | 335 | 2.0 | 8.0 | 0.00 | 0.00 | 0.00 | 33 | 1006.4 |
| 20260504173019 | 70 | 345 | 3.0 | 7.0 | 0.00 | 0.00 | 0.00 | 34 | 1006.6 |
| 20260504172019 | 69 | 336 | 3.0 | 10.0 | 0.00 | 0.00 | 0.00 | 34 | 1006.6 |
| 20260504171019 | 68 | 347 | 2.0 | 8.0 | 0.00 | 0.00 | 0.00 | 34 | 1006.7 |
| 20260504151019 | 64 | 358 | 1.0 | 4.0 | 0.00 | 0.00 | 0.00 | 40 | 1008.0 |
| 20260504141040 | 62 | 3 | 1.0 | 7.0 | 0.00 | 0.00 | 0.00 | 42 | 1008.3 |
| 20260504081120 | 44 | 0.0 | 0.0 | 0.00 | 0.00 | 0.00 | 68 | 1009.6 | |
| 20260504050018 | 40 | 0.0 | 0.0 | 0.00 | 0.00 | 0.00 | 69 | 1009.4 | |
| 20260504045020 | 40 | 0.0 | 0.0 | 0.00 | 0.00 | 0.00 | 68 | 1009.5 | |
| 20260504044020 | 40 | 0.0 | 0.0 | 0.00 | 0.00 | 0.00 | 69 | 1009.6 | |
| 20260504043100 | 39 | 0.0 | 0.0 | 0.00 | 0.00 | 0.00 | 69 | 1009.6 | |
| 20260504042040 | 38 | 0.0 | 0.0 | 0.00 | 0.00 | 0.00 | 71 | 1009.5 | |
| 20260504041017 | 38 | 0.0 | 0.0 | 0.00 | 0.00 | 0.00 | 72 | 1009.4 | |
| 20260504040021 | 38 | 0.0 | 0.0 | 0.00 | 0.00 | 0.00 | 73 | 1009.2 | |
| 20260504035018 | 38 | 0.0 | 0.0 | 0.00 | 0.00 | 0.00 | 74 | 1009.2 | |
| 20260504034021 | 38 | 0.0 | 0.0 | 0.00 | 0.00 | 0.00 | 75 | 1009.1 | |
| 20260504033018 | 38 | 0.0 | 0.0 | 0.00 | 0.00 | 0.00 | 76 | 1009.1 | |
| 20260504032020 | 38 | 0.0 | 0.0 | 0.00 | 0.00 | 0.00 | 75 | 1009.1 | |
| 20260504031018 | 39 | 0.0 | 0.0 | 0.00 | 0.00 | 0.00 | 74 | 1009.1 | |
| 20260504030038 | 39 | 0.0 | 0.0 | 0.00 | 0.00 | 0.00 | 72 | 1009.0 | |
| 20260504025019 | 40 | 327 | 0.0 | 1.0 | 0.00 | 0.00 | 0.00 | 71 | 1008.9 |
| 20260504024019 | 40 | 0.0 | 0.0 | 0.00 | 0.00 | 0.00 | 69 | 1008.8 | |
| 20260504023019 | 41 | 0.0 | 0.0 | 0.00 | 0.00 | 0.00 | 67 | 1008.8 | |
| 20260504022019 | 41 | 0.0 | 0.0 | 0.00 | 0.00 | 0.00 | 66 | 1008.7 | |
| 20260504021019 | 41 | 0.0 | 0.0 | 0.00 | 0.00 | 0.00 | 64 | 1008.7 | |
| 20260504020019 | 41 | 0.0 | 0.0 | 0.00 | 0.00 | 0.00 | 63 | 1008.6 | |
| 20260504015041 | 41 | 0.0 | 0.0 | 0.00 | 0.00 | 0.00 | 62 | 1008.5 | |
| 20260504014017 | 42 | 0.0 | 0.0 | 0.00 | 0.00 | 0.00 | 62 | 1008.5 | |
| 20260504013020 | 42 | 0.0 | 0.0 | 0.00 | 0.00 | 0.00 | 61 | 1008.4 | |
| 20260504012020 | 43 | 0.0 | 0.0 | 0.00 | 0.00 | 0.00 | 62 | 1008.3 | |
| 20260504011020 | 43 | 0.0 | 0.0 | 0.00 | 0.00 | 0.00 | 60 | 1008.3 | |
| 20260504010018 | 43 | 0.0 | 0.0 | 0.00 | 0.00 | 0.00 | 59 | 1008.1 | |
| 20260504005058 | 44 | 0.0 | 0.0 | 0.00 | 0.00 | 0.00 | 58 | 1007.9 | |
| 20260504004018 | 44 | 0.0 | 0.0 | 0.00 | 0.00 | 0.00 | 58 | 1007.8 | |
| 20260504003018 | 45 | 0.0 | 0.0 | 0.00 | 0.00 | 0.00 | 55 | 1007.8 | |
| 20260504002021 | 46 | 0.0 | 0.0 | 0.00 | 0.00 | 0.00 | 54 | 1007.6 | |
| 20260504001018 | 47 | 145 | 0.0 | 2.0 | 0.00 | 0.00 | 0.00 | 54 | 1007.4 |
| 20260504000019 | 48 | 0.0 | 0.0 | 0.00 | 0.00 | 0.00 | 51 | 1007.4 | |
| 20260503235019 | 49 | 0.0 | 0.0 | 0.00 | 0.00 | 0.00 | 48 | 1007.3 | |
| 20260503234020 | 50 | 0.0 | 0.0 | 0.00 | 0.00 | 0.00 | 44 | 1007.2 | |
| 20260503233019 | 50 | 118 | 0.0 | 3.0 | 0.00 | 0.00 | 0.00 | 45 | 1007.2 |
| 20260503232020 | 51 | 353 | 0.0 | 2.0 | 0.00 | 0.00 | 0.00 | 43 | 1007.1 |
| 20260503231040 | 51 | 353 | 1.0 | 5.0 | 0.00 | 0.00 | 0.00 | 42 | 1006.9 |
| 20260503230020 | 51 | 8 | 0.0 | 2.0 | 0.00 | 0.00 | 0.00 | 43 | 1006.8 |
| 20260503225020 | 52 | 358 | 1.0 | 3.0 | 0.00 | 0.00 | 0.00 | 42 | 1006.7 |
| 20260503224042 | 52 | 358 | 1.0 | 4.0 | 0.00 | 0.00 | 0.00 | 42 | 1006.6 |
| 20260503223017 | 52 | 8 | 1.0 | 3.0 | 0.00 | 0.00 | 0.00 | 42 | 1006.6 |
| 20260503222017 | 52 | 6 | 2.0 | 4.0 | 0.00 | 0.00 | 0.00 | 42 | 1006.6 |
| 20260503221017 | 51 | 7 | 1.0 | 4.0 | 0.00 | 0.00 | 0.00 | 42 | 1006.6 |
| 20260503220020 | 52 | 351 | 4.0 | 8.0 | 0.00 | 0.00 | 0.00 | 41 | 1006.5 |
| 20260503215021 | 54 | 6 | 2.0 | 5.0 | 0.00 | 0.00 | 0.00 | 40 | 1006.3 |
| 20260503214018 | 53 | 355 | 2.0 | 7.0 | 0.00 | 0.00 | 0.00 | 40 | 1006.3 |
| 20260503213019 | 52 | 359 | 2.0 | 7.0 | 0.00 | 0.00 | 0.00 | 41 | 1006.1 |
| 20260503212018 | 52 | 1 | 3.0 | 9.0 | 0.00 | 0.00 | 0.00 | 41 | 1006.1 |
| 20260503211019 | 51 | 348 | 3.0 | 6.0 | 0.00 | 0.00 | 0.00 | 42 | 1006.1 |
| 20260503210038 | 51 | 0 | 2.0 | 5.0 | 0.00 | 0.00 | 0.00 | 43 | 1005.9 |